sat.trackr.live / text

‹ back to catalog

STARLINK-37008

NORAD 68564 · 2026-070Y

PAYLOAD ACTIVE UNKNOWN

§ Identity

Operator
Country
US
Launch date
2026-04-02
Launch site
AFETR
Launch vehicle
Mass (kg)
RCS (m²)

Purposes: comms

External: N2YO · Heavens-Above · Gunter

§ Orbital elements

Epoch: 2026-05-24T21:41:12.808608Z

Period
93.85 min
Inclination
53.1602°
Eccentricity
0.0001253
Mean motion
15.34388032 rev/d
Perigee alt
461.9 km
Apogee alt
463.6 km
Semi-major
6,840.9 km
B*
3.4151e-4
RAAN
7.8358°
Arg perigee
93.9580°
Mean anomaly
266.1566°
Rev number
823

§ Raw data

STARLINK-370081 68564U 26070Y   26144.90362047  .00011175  00000+0  34151-3 0  99932 68564  53.1602   7.8358 0001253  93.9580 266.1566 15.34388032  8236

JSON: /api/v1/satellites/68564 · /tle

For live sub-satellite position, see the globe view (requires WebGL).

§ Visibility from observer

Set your observer location to see the next 7 days of passes ≥ 10°. The values pass through the URL so the page stays shareable.

No JS? Fill the form by hand. The geolocation button needs JavaScript.